﻿測定場所 (Monitoring sites),日付 (Measurement date),時間 (Measurement time),線量率 最大値 (max) μGy/h,線量率 最小値 (min) μGy/h,線量率 平均値 (average) μGy/h,
新宿 (Shinjuku),2014-11-16,23:01～24:00,0.0362,0.0324,0.0342,
新宿 (Shinjuku),2014-11-16,22:01～23:00,0.0357,0.0313,0.0336,
新宿 (Shinjuku),2014-11-16,21:01～22:00,0.0353,0.0312,0.0332,
新宿 (Shinjuku),2014-11-16,20:01～21:00,0.0354,0.0311,0.0332,
新宿 (Shinjuku),2014-11-16,19:01～20:00,0.0352,0.0304,0.0331,
新宿 (Shinjuku),2014-11-16,18:01～19:00,0.0350,0.0309,0.0330,
新宿 (Shinjuku),2014-11-16,17:01～18:00,0.0354,0.0309,0.0332,
新宿 (Shinjuku),2014-11-16,16:01～17:00,0.0346,0.0310,0.0330,
新宿 (Shinjuku),2014-11-16,15:01～16:00,0.0347,0.0312,0.0331,
新宿 (Shinjuku),2014-11-16,14:01～15:00,0.0355,0.0310,0.0333,
新宿 (Shinjuku),2014-11-16,13:01～14:00,0.0352,0.0311,0.0332,
新宿 (Shinjuku),2014-11-16,12:01～13:00,0.0356,0.0318,0.0335,
新宿 (Shinjuku),2014-11-16,11:01～12:00,0.0357,0.0311,0.0332,
新宿 (Shinjuku),2014-11-16,10:01～11:00,0.0352,0.0315,0.0337,
新宿 (Shinjuku),2014-11-16,09:01～10:00,0.0366,0.0315,0.0333,
新宿 (Shinjuku),2014-11-16,08:01～09:00,0.0352,0.0314,0.0336,
新宿 (Shinjuku),2014-11-16,07:01～08:00,0.0354,0.0314,0.0336,
新宿 (Shinjuku),2014-11-16,06:01～07:00,0.0357,0.0315,0.0334,
新宿 (Shinjuku),2014-11-16,05:01～06:00,0.0359,0.0310,0.0331,
新宿 (Shinjuku),2014-11-16,04:01～05:00,0.0353,0.0309,0.0331,
新宿 (Shinjuku),2014-11-16,03:01～04:00,0.0352,0.0316,0.0331,
新宿 (Shinjuku),2014-11-16,02:01～03:00,0.0351,0.0303,0.0332,
新宿 (Shinjuku),2014-11-16,01:01～02:00,0.0354,0.0306,0.0328,
新宿 (Shinjuku),2014-11-16,00:01～01:00,0.0359,0.0316,0.0334,
新宿 (Shinjuku),2014-11-15,23:01～24:00,0.0355,0.0307,0.0334,
新宿 (Shinjuku),2014-11-15,22:01～23:00,0.0361,0.0311,0.0333,
新宿 (Shinjuku),2014-11-15,21:01～22:00,0.0359,0.0309,0.0333,
新宿 (Shinjuku),2014-11-15,20:01～21:00,0.0367,0.0316,0.0335,
新宿 (Shinjuku),2014-11-15,19:01～20:00,0.0357,0.0300,0.0331,
新宿 (Shinjuku),2014-11-15,18:01～19:00,0.0353,0.0315,0.0331,
新宿 (Shinjuku),2014-11-15,17:01～18:00,0.0346,0.0304,0.0331,
新宿 (Shinjuku),2014-11-15,16:01～17:00,0.0348,0.0313,0.0329,
新宿 (Shinjuku),2014-11-15,15:01～16:00,0.0355,0.0307,0.0337,
新宿 (Shinjuku),2014-11-15,14:01～15:00,0.0356,0.0315,0.0337,
新宿 (Shinjuku),2014-11-15,13:01～14:00,0.0360,0.0314,0.0335,
新宿 (Shinjuku),2014-11-15,12:01～13:00,0.0353,0.0312,0.0338,
新宿 (Shinjuku),2014-11-15,11:01～12:00,0.0357,0.0323,0.0339,
新宿 (Shinjuku),2014-11-15,10:01～11:00,0.0365,0.0324,0.0341,
新宿 (Shinjuku),2014-11-15,09:01～10:00,0.0370,0.0316,0.0341,
新宿 (Shinjuku),2014-11-15,08:01～09:00,0.0371,0.0322,0.0343,
新宿 (Shinjuku),2014-11-15,07:01～08:00,0.0361,0.0311,0.0341,
新宿 (Shinjuku),2014-11-15,06:01～07:00,0.0362,0.0322,0.0340,
新宿 (Shinjuku),2014-11-15,05:01～06:00,0.0362,0.0321,0.0341,
新宿 (Shinjuku),2014-11-15,04:01～05:00,0.0359,0.0320,0.0340,
新宿 (Shinjuku),2014-11-15,03:01～04:00,0.0365,0.0323,0.0343,
新宿 (Shinjuku),2014-11-15,02:01～03:00,0.0358,0.0315,0.0340,
新宿 (Shinjuku),2014-11-15,01:01～02:00,0.0362,0.0319,0.0340,
新宿 (Shinjuku),2014-11-15,00:01～01:00,0.0360,0.0319,0.0337,
新宿 (Shinjuku),2014-11-14,23:01～24:00,0.0361,0.0313,0.0337,
新宿 (Shinjuku),2014-11-14,22:01～23:00,0.0353,0.0323,0.0338,
新宿 (Shinjuku),2014-11-14,21:01～22:00,0.0356,0.0315,0.0335,
新宿 (Shinjuku),2014-11-14,20:01～21:00,0.0357,0.0314,0.0336,
新宿 (Shinjuku),2014-11-14,19:01～20:00,0.0353,0.0308,0.0331,
新宿 (Shinjuku),2014-11-14,18:01～19:00,0.0351,0.0310,0.0331,
新宿 (Shinjuku),2014-11-14,17:01～18:00,0.0354,0.0308,0.0332,
新宿 (Shinjuku),2014-11-14,16:01～17:00,0.0356,0.0312,0.0331,
新宿 (Shinjuku),2014-11-14,15:01～16:00,0.0354,0.0317,0.0333,
新宿 (Shinjuku),2014-11-14,14:01～15:00,0.0347,0.0314,0.0333,
新宿 (Shinjuku),2014-11-14,13:01～14:00,0.0355,0.0319,0.0336,
新宿 (Shinjuku),2014-11-14,12:01～13:00,0.0356,0.0317,0.0333,
新宿 (Shinjuku),2014-11-14,11:01～12:00,0.0364,0.0316,0.0337,
新宿 (Shinjuku),2014-11-14,10:01～11:00,0.0360,0.0319,0.0337,
新宿 (Shinjuku),2014-11-14,09:01～10:00,0.0370,0.0318,0.0341,
新宿 (Shinjuku),2014-11-14,08:01～09:00,0.0361,0.0321,0.0340,
新宿 (Shinjuku),2014-11-14,07:01～08:00,0.0358,0.0314,0.0340,
新宿 (Shinjuku),2014-11-14,06:01～07:00,0.0360,0.0322,0.0339,
新宿 (Shinjuku),2014-11-14,05:01～06:00,0.0356,0.0316,0.0336,
新宿 (Shinjuku),2014-11-14,04:01～05:00,0.0364,0.0312,0.0334,
新宿 (Shinjuku),2014-11-14,03:01～04:00,0.0360,0.0319,0.0335,
新宿 (Shinjuku),2014-11-14,02:01～03:00,0.0351,0.0317,0.0336,
新宿 (Shinjuku),2014-11-14,01:01～02:00,0.0357,0.0316,0.0335,
新宿 (Shinjuku),2014-11-14,00:01～01:00,0.0354,0.0312,0.0331,
新宿 (Shinjuku),2014-11-13,23:01～24:00,0.0348,0.0317,0.0332,
新宿 (Shinjuku),2014-11-13,22:01～23:00,0.0361,0.0315,0.0333,
新宿 (Shinjuku),2014-11-13,21:01～22:00,0.0357,0.0313,0.0331,
新宿 (Shinjuku),2014-11-13,20:01～21:00,0.0355,0.0306,0.0332,
新宿 (Shinjuku),2014-11-13,19:01～20:00,0.0349,0.0311,0.0330,
新宿 (Shinjuku),2014-11-13,18:01～19:00,0.0353,0.0314,0.0333,
新宿 (Shinjuku),2014-11-13,17:01～18:00,0.0351,0.0306,0.0329,
新宿 (Shinjuku),2014-11-13,16:01～17:00,0.0351,0.0311,0.0333,
新宿 (Shinjuku),2014-11-13,15:01～16:00,0.0360,0.0316,0.0338,
新宿 (Shinjuku),2014-11-13,14:01～15:00,0.0359,0.0315,0.0336,
新宿 (Shinjuku),2014-11-13,13:01～14:00,0.0360,0.0320,0.0341,
新宿 (Shinjuku),2014-11-13,12:01～13:00,0.0359,0.0314,0.0339,
新宿 (Shinjuku),2014-11-13,11:01～12:00,0.0372,0.0325,0.0345,
新宿 (Shinjuku),2014-11-13,10:01～11:00,0.0373,0.0323,0.0348,
新宿 (Shinjuku),2014-11-13,09:01～10:00,0.0375,0.0330,0.0352,
新宿 (Shinjuku),2014-11-13,08:01～09:00,0.0384,0.0333,0.0358,
新宿 (Shinjuku),2014-11-13,07:01～08:00,0.0394,0.0328,0.0357,
新宿 (Shinjuku),2014-11-13,06:01～07:00,0.0372,0.0329,0.0351,
新宿 (Shinjuku),2014-11-13,05:01～06:00,0.0370,0.0328,0.0347,
新宿 (Shinjuku),2014-11-13,04:01～05:00,0.0360,0.0317,0.0340,
新宿 (Shinjuku),2014-11-13,03:01～04:00,0.0359,0.0313,0.0341,
新宿 (Shinjuku),2014-11-13,02:01～03:00,0.0369,0.0320,0.0344,
新宿 (Shinjuku),2014-11-13,01:01～02:00,0.0367,0.0318,0.0342,
新宿 (Shinjuku),2014-11-13,00:01～01:00,0.0366,0.0327,0.0344,
新宿 (Shinjuku),2014-11-12,23:01～24:00,0.0358,0.0319,0.0339,
新宿 (Shinjuku),2014-11-12,22:01～23:00,0.0366,0.0317,0.0343,
新宿 (Shinjuku),2014-11-12,21:01～22:00,0.0356,0.0318,0.0338,
新宿 (Shinjuku),2014-11-12,20:01～21:00,0.0360,0.0316,0.0339,
新宿 (Shinjuku),2014-11-12,19:01～20:00,0.0365,0.0312,0.0336,
新宿 (Shinjuku),2014-11-12,18:01～19:00,0.0355,0.0314,0.0336,
新宿 (Shinjuku),2014-11-12,17:01～18:00,0.0361,0.0323,0.0337,
新宿 (Shinjuku),2014-11-12,16:01～17:00,0.0363,0.0317,0.0337,
新宿 (Shinjuku),2014-11-12,15:01～16:00,0.0356,0.0322,0.0337,
新宿 (Shinjuku),2014-11-12,14:01～15:00,0.0355,0.0317,0.0336,
新宿 (Shinjuku),2014-11-12,13:01～14:00,0.0365,0.0319,0.0338,
新宿 (Shinjuku),2014-11-12,12:01～13:00,0.0354,0.0317,0.0338,
新宿 (Shinjuku),2014-11-12,11:01～12:00,0.0360,0.0309,0.0338,
新宿 (Shinjuku),2014-11-12,10:01～11:00,0.0365,0.0308,0.0338,
新宿 (Shinjuku),2014-11-12,09:01～10:00,0.0368,0.0325,0.0344,
新宿 (Shinjuku),2014-11-12,08:01～09:00,0.0366,0.0331,0.0347,
新宿 (Shinjuku),2014-11-12,07:01～08:00,0.0365,0.0317,0.0343,
新宿 (Shinjuku),2014-11-12,06:01～07:00,0.0380,0.0329,0.0351,
新宿 (Shinjuku),2014-11-12,05:01～06:00,0.0398,0.0352,0.0370,
新宿 (Shinjuku),2014-11-12,04:01～05:00,0.0418,0.0337,0.0363,
新宿 (Shinjuku),2014-11-12,03:01～04:00,0.0377,0.0331,0.0355,
新宿 (Shinjuku),2014-11-12,02:01～03:00,0.0373,0.0326,0.0354,
新宿 (Shinjuku),2014-11-12,01:01～02:00,0.0361,0.0317,0.0337,
新宿 (Shinjuku),2014-11-12,00:01～01:00,0.0368,0.0322,0.0343,
新宿 (Shinjuku),2014-11-11,23:01～24:00,0.0363,0.0324,0.0342,
新宿 (Shinjuku),2014-11-11,22:01～23:00,0.0363,0.0322,0.0340,
新宿 (Shinjuku),2014-11-11,21:01～22:00,0.0363,0.0320,0.0340,
新宿 (Shinjuku),2014-11-11,20:01～21:00,0.0371,0.0316,0.0339,
新宿 (Shinjuku),2014-11-11,19:01～20:00,0.0356,0.0324,0.0339,
新宿 (Shinjuku),2014-11-11,18:01～19:00,0.0369,0.0321,0.0342,
新宿 (Shinjuku),2014-11-11,17:01～18:00,0.0357,0.0315,0.0340,
新宿 (Shinjuku),2014-11-11,16:01～17:00,0.0365,0.0332,0.0347,
新宿 (Shinjuku),2014-11-11,15:01～16:00,0.0370,0.0322,0.0350,
新宿 (Shinjuku),2014-11-11,14:01～15:00,0.0376,0.0321,0.0349,
新宿 (Shinjuku),2014-11-11,13:01～14:00,0.0358,0.0323,0.0339,
新宿 (Shinjuku),2014-11-11,12:01～13:00,0.0362,0.0315,0.0343,
新宿 (Shinjuku),2014-11-11,11:01～12:00,0.0366,0.0319,0.0343,
新宿 (Shinjuku),2014-11-11,10:01～11:00,0.0366,0.0321,0.0342,
新宿 (Shinjuku),2014-11-11,09:01～10:00,0.0369,0.0327,0.0345,
新宿 (Shinjuku),2014-11-11,08:01～09:00,0.0367,0.0327,0.0344,
新宿 (Shinjuku),2014-11-11,07:01～08:00,0.0356,0.0318,0.0338,
新宿 (Shinjuku),2014-11-11,06:01～07:00,0.0367,0.0317,0.0340,
新宿 (Shinjuku),2014-11-11,05:01～06:00,0.0359,0.0315,0.0338,
新宿 (Shinjuku),2014-11-11,04:01～05:00,0.0352,0.0318,0.0337,
新宿 (Shinjuku),2014-11-11,03:01～04:00,0.0360,0.0319,0.0337,
新宿 (Shinjuku),2014-11-11,02:01～03:00,0.0356,0.0316,0.0337,
新宿 (Shinjuku),2014-11-11,01:01～02:00,0.0359,0.0314,0.0334,
新宿 (Shinjuku),2014-11-11,00:01～01:00,0.0350,0.0311,0.0332,
新宿 (Shinjuku),2014-11-10,23:01～24:00,0.0361,0.0308,0.0331,
新宿 (Shinjuku),2014-11-10,22:01～23:00,0.0358,0.0308,0.0335,
新宿 (Shinjuku),2014-11-10,21:01～22:00,0.0348,0.0313,0.0332,
新宿 (Shinjuku),2014-11-10,20:01～21:00,0.0353,0.0312,0.0333,
新宿 (Shinjuku),2014-11-10,19:01～20:00,0.0354,0.0320,0.0337,
新宿 (Shinjuku),2014-11-10,18:01～19:00,0.0361,0.0311,0.0337,
新宿 (Shinjuku),2014-11-10,17:01～18:00,0.0366,0.0312,0.0335,
新宿 (Shinjuku),2014-11-10,16:01～17:00,0.0358,0.0314,0.0334,
新宿 (Shinjuku),2014-11-10,15:01～16:00,0.0354,0.0307,0.0335,
新宿 (Shinjuku),2014-11-10,14:01～15:00,0.0350,0.0308,0.0331,
新宿 (Shinjuku),2014-11-10,13:01～14:00,0.0361,0.0315,0.0334,
新宿 (Shinjuku),2014-11-10,12:01～13:00,0.0361,0.0318,0.0335,
新宿 (Shinjuku),2014-11-10,11:01～12:00,0.0357,0.0307,0.0337,
新宿 (Shinjuku),2014-11-10,10:01～11:00,0.0360,0.0318,0.0335,
新宿 (Shinjuku),2014-11-10,09:01～10:00,0.0355,0.0313,0.0337,
新宿 (Shinjuku),2014-11-10,08:01～09:00,0.0355,0.0321,0.0338,
新宿 (Shinjuku),2014-11-10,07:01～08:00,0.0373,0.0324,0.0343,
新宿 (Shinjuku),2014-11-10,06:01～07:00,0.0364,0.0328,0.0345,
新宿 (Shinjuku),2014-11-10,05:01～06:00,0.0363,0.0323,0.0344,
新宿 (Shinjuku),2014-11-10,04:01～05:00,0.0365,0.0323,0.0343,
新宿 (Shinjuku),2014-11-10,03:01～04:00,0.0366,0.0324,0.0344,
新宿 (Shinjuku),2014-11-10,02:01～03:00,0.0366,0.0321,0.0342,
新宿 (Shinjuku),2014-11-10,01:01～02:00,0.0359,0.0310,0.0340,
新宿 (Shinjuku),2014-11-10,00:01～01:00,0.0360,0.0322,0.0342,
